TimePST,TemperatureF,Dew PointF,Humidity,Sea Level PressureIn,VisibilityMPH,Wind Direction,Wind SpeedMPH,Gust SpeedMPH,PrecipitationIn,Events,Conditions,WindDirDegrees,DateUTC
12:53 AM,50.0,44.1,80,30.32,10.0,Calm,Calm,-,N/A,,Mostly Cloudy,0,2013-11-14 08:53:00
1:53 AM,48.9,43.0,80,30.30,10.0,SSW,3.5,-,N/A,,Mostly Cloudy,210,2013-11-14 09:53:00
2:05 AM,46.4,42.8,87,30.27,10.0,South,3.5,-,N/A,,Mostly Cloudy,180,2013-11-14 10:05:00
2:53 AM,48.9,44.1,83,30.27,10.0,Calm,Calm,-,N/A,,Overcast,0,2013-11-14 10:53:00
3:53 AM,48.9,44.1,83,30.25,10.0,Calm,Calm,-,N/A,,Overcast,0,2013-11-14 11:53:00
4:53 AM,48.0,44.1,86,30.25,10.0,Calm,Calm,-,N/A,,Mostly Cloudy,0,2013-11-14 12:53:00
5:42 AM,48.2,44.6,87,30.21,10.0,Calm,Calm,-,N/A,,Mostly Cloudy,0,2013-11-14 13:42:00
5:53 AM,48.9,44.1,83,30.23,10.0,Calm,Calm,-,N/A,,Overcast,0,2013-11-14 13:53:00
6:42 AM,48.2,44.6,87,30.20,2.5,Calm,Calm,-,N/A,,Haze,0,2013-11-14 14:42:00
6:53 AM,48.9,44.1,83,30.23,2.5,Calm,Calm,-,N/A,,Haze,0,2013-11-14 14:53:00
7:08 AM,48.2,44.6,87,30.20,7.0,Calm,Calm,-,N/A,,Overcast,0,2013-11-14 15:08:00
7:53 AM,48.9,44.1,83,30.22,8.0,South,4.6,-,N/A,,Overcast,170,2013-11-14 15:53:00
8:19 AM,48.2,44.6,87,30.20,7.0,South,4.6,-,0.00,Rain,Light Rain,180,2013-11-14 16:19:00
8:45 AM,48.2,44.6,87,30.19,8.0,South,4.6,-,0.03,Rain,Light Rain,170,2013-11-14 16:45:00
8:53 AM,48.9,44.1,83,30.22,8.0,South,5.8,-,0.03,,Overcast,180,2013-11-14 16:53:00
9:15 AM,48.2,44.6,87,30.19,7.0,SSE,4.6,-,N/A,,Overcast,150,2013-11-14 17:15:00
9:34 AM,48.2,44.6,87,30.19,7.0,South,3.5,-,N/A,,Overcast,190,2013-11-14 17:34:00
9:53 AM,48.9,44.1,83,30.22,6.0,Calm,Calm,-,0.00,Rain,Light Rain,0,2013-11-14 17:53:00
10:18 AM,48.2,44.6,87,30.19,7.0,South,4.6,-,0.00,Rain,Light Rain,190,2013-11-14 18:18:00
10:53 AM,48.9,43.0,80,30.20,8.0,SSW,8.1,-,0.00,,Overcast,200,2013-11-14 18:53:00
11:05 AM,48.2,42.8,82,30.17,7.0,SW,4.6,-,N/A,,Overcast,220,2013-11-14 19:05:00
11:53 AM,48.9,44.1,83,30.18,8.0,SW,3.5,-,N/A,,Overcast,220,2013-11-14 19:53:00
12:43 PM,50.0,44.6,82,30.14,10.0,WSW,5.8,-,N/A,,Mostly Cloudy,250,2013-11-14 20:43:00
12:53 PM,50.0,43.0,77,30.17,10.0,SW,4.6,-,N/A,,Mostly Cloudy,230,2013-11-14 20:53:00
1:53 PM,51.1,43.0,74,30.16,10.0,WSW,5.8,-,N/A,,Mostly Cloudy,250,2013-11-14 21:53:00
2:04 PM,51.8,44.6,76,30.13,10.0,Calm,Calm,-,N/A,,Overcast,0,2013-11-14 22:04:00
2:53 PM,51.1,43.0,74,30.15,10.0,Calm,Calm,-,N/A,,Overcast,0,2013-11-14 22:53:00
3:23 PM,50.0,44.6,82,30.13,10.0,WNW,3.5,-,0.00,,Overcast,290,2013-11-14 23:23:00
3:53 PM,50.0,45.0,83,30.16,6.0,NNW,3.5,-,0.00,Rain,Light Rain,330,2013-11-14 23:53:00
4:53 PM,50.0,44.1,80,30.14,10.0,Calm,Calm,-,0.02,,Mostly Cloudy,0,2013-11-15 00:53:00
5:53 PM,48.0,42.1,80,30.14,10.0,Calm,Calm,-,N/A,,Scattered Clouds,0,2013-11-15 01:53:00
6:53 PM,46.9,41.0,80,30.14,10.0,Calm,Calm,-,N/A,,Scattered Clouds,0,2013-11-15 02:53:00
7:53 PM,46.9,41.0,80,30.12,10.0,SE,4.6,-,N/A,,Partly Cloudy,130,2013-11-15 03:53:00
8:53 PM,45.0,39.9,82,30.12,10.0,SSE,4.6,-,N/A,,Partly Cloudy,150,2013-11-15 04:53:00
9:19 PM,44.6,41.0,87,30.10,10.0,SE,3.5,-,N/A,,Scattered Clouds,140,2013-11-15 05:19:00
9:53 PM,45.0,39.9,82,30.12,10.0,Calm,Calm,-,N/A,,Mostly Cloudy,0,2013-11-15 05:53:00
10:53 PM,46.9,42.1,83,30.11,10.0,SSE,5.8,-,N/A,,Overcast,160,2013-11-15 06:53:00
11:53 PM,45.0,39.9,82,30.09,9.0,South,5.8,-,N/A,,Mostly Cloudy,170,2013-11-15 07:53:00